Wetbulb
60.74 60.15 59.14 58.06 57.75 57.37 57.11 56.71 56.23 55.79 55.82 56.05 56.62 56.68 56.47 56.12 56.10 55.84 55.95 56.59 57.37 57.88 57.92 57.59 57.77 57.27 51.76 39.26 42.88 52.59 57.51 54.28 51.51 50.80 46.45 43.96 40.41 37.85 34.90 36.73 38.33 35.30 37.04 40.40 40.24 40.11 39.22
60.10 59.29 58.59 58.09 57.56 57.10 56.94 56.46 55.75 55.41 55.60 56.14 56.61 56.49 56.30 55.88 55.56 55.25 55.67 56.39 57.35 57.58 57.73 57.69 57.20 56.33 45.98 33.61 51.68 52.75 50.91 49.74 49.15 48.28 45.99 44.75 41.43 42.09 37.75 36.82 35.94 37.49 38.32 38.45 39.37 39.33 39.13
60.74 60.27 59.50 58.84 57.89 57.16 56.56 56.04 55.50 55.73 55.87 56.30 56.21 56.01 55.84 55.44 55.08 55.05 55.49 56.37 57.03 57.60 57.80 57.48 56.26 52.60 43.63 39.70 50.60 50.52 49.76 47.29 48.07 47.89 44.70 46.07 45.37 41.69 39.41 36.43 40.15 38.79 34.10 35.73 36.98 38.52 36.81
61.21 61.02 60.46 59.77 58.49 57.37 56.53 55.75 55.42 55.70 55.92 55.78 55.78 55.86 55.40 54.79 54.70 54.70 55.06 56.13 57.00 57.34 56.86 55.18 56.36 47.66 39.80 50.69 49.45 49.34 49.07 46.87 48.61 48.24 47.90 47.22 46.17 42.28 40.14 39.61 37.02 32.91 32.20 27.81 33.88 37.88 37.63
61.60 61.65 61.15 60.30 58.94 57.74 56.75 55.68 55.21 55.45 55.38 55.20 55.59 55.28 54.63 54.21 54.24 54.57 55.53 56.45 56.39 56.42 54.39 55.61 47.20 42.62 37.15 51.77 45.79 47.62 47.72 45.80 46.63 46.58 46.94 49.83 44.33 38.14 37.73 31.86 26.69 29.49 22.48 26.28 30.84 38.01 36.78
62.11 62.30 61.86 60.75 59.23 58.04 56.95 55.84 55.08 55.42 54.88 54.64 54.62 54.31 53.85 53.83 53.96 54.66 55.80 55.39 54.70 49.66 48.34 51.74 48.08 35.41 40.64 39.70 44.27 45.64 47.18 46.53 43.60 43.50 42.84 41.40 36.91 32.40 32.04 28.44 20.71 23.53 25.20 27.12 27.27 33.48 33.89
62.40 62.23 61.87 61.03 59.50 58.32 57.30 56.06 55.16 55.12 54.45 54.15 53.99 53.87 53.61 53.52 53.74 54.83 52.02 44.38 40.07 38.21 41.38 37.37 38.39 38.48 40.41 44.25 45.51 44.60 46.72 44.14 42.29 37.88 31.77 35.48 29.53 24.21 29.20 31.44 31.17 29.80 26.66 26.83 29.74 35.23 31.67
62.01 62.11 61.62 61.03 60.00 58.67 57.70 56.42 55.38 55.02 54.16 53.79 53.80 53.66 53.33 53.12 53.49 54.66 48.20 43.37 41.68 41.05 36.63 41.18 42.36 41.70 43.15 43.86 38.69 41.95 45.99 37.40 36.04 30.15 34.29 31.64 27.40 31.36 33.93 33.13 31.79 30.35 27.68 27.15 30.65 34.61 31.55
61.90 61.99 61.72 61.24 60.40 59.26 58.26 56.80 55.63 55.15 54.05 53.53 53.43 53.15 52.92 52.81 53.60 48.97 46.09 45.28 48.73 45.79 34.89 36.12 41.30 39.36 40.85 42.61 37.91 40.17 42.80 38.68 34.27 29.45 30.36 27.68 29.87 36.38 34.84 31.67 30.95 29.09 27.05 26.68 28.07 31.51 30.85
61.72 61.79 61.61 61.40 60.66 59.53 58.47 57.28 56.24 55.25 54.35 53.71 52.84 52.51 52.42 52.78 46.55 45.46 44.73 48.82 48.15 43.06 26.43 28.55 36.03 39.45 42.76 41.65 35.70 44.79 43.82 38.30 34.66 29.69 31.66 29.29 34.23 33.94 31.88 31.06 30.82 27.03 31.54 31.30 31.18 25.35 21.05
61.68 61.53 61.32 61.00 60.53 59.58 58.49 57.48 56.42 55.53 54.62 53.55 52.57 52.05 51.82 51.69 44.02 43.73 46.07 47.89 46.76 38.07 21.09 32.50 36.71 45.22 42.99 37.17 37.60 39.09 43.80 38.73 30.76 31.97 30.84 27.36 31.32 32.01 30.71 31.39 33.31 29.20 34.15 31.30 28.53 22.74 20.54
61.53 61.42 61.14 60.72 60.20 59.37 58.56 57.73 56.64 55.96 54.82 53.73 52.73 51.88 51.26 48.04 45.21 46.37 49.05 48.39 40.89 28.47 19.50 27.87 37.54 36.77 35.55 37.44 37.69 40.25 39.48 39.95 38.18 32.29 31.24 30.88 35.06 34.09 33.25 34.68 34.17 34.83 30.03 28.12 25.17 21.30 14.35
61.10 61.07 60.93 60.65 60.16 59.40 58.62 57.78 56.71 55.99 55.00 53.87 52.79 52.13 50.00 49.36 43.71 49.28 48.31 41.39 31.40 25.44 32.15 29.26 32.27 35.58 33.62 32.10 34.75 36.38 34.51 31.33 28.19 22.86 24.27 28.41 29.93 32.87 35.87 30.77 32.90 29.79 25.75 13.89 12.29 9.51 17.10
59.26 60.78 60.70 60.52 60.24 59.70 58.89 57.91 56.96 56.23 55.10 53.79 53.11 51.75 49.88 49.57 50.12 48.93 43.95 33.78 25.30 30.52 28.43 33.75 32.68 32.30 29.78 33.11 32.63 34.37 32.01 28.81 31.03 26.58 23.85 20.66 17.41 30.77 34.24 31.30 29.31 27.88 26.30 16.76 6.84 10.10 15.94
58.66 59.04 58.73 59.84 60.02 59.86 59.17 58.29 57.15 55.96 54.64 53.38 51.68 48.33 46.84 48.78 49.93 47.71 39.45 27.76 29.03 28.67 32.00 32.44 31.96 27.30 27.34 31.88 31.12 31.07 29.90 29.29 30.98 31.19 23.61 22.53 24.65 32.40 34.07 34.17 32.46 28.41 24.60 27.91 20.72 16.35 14.76
57.96 57.96 58.34 58.22 58.08 59.21 59.28 58.80 57.53 55.95 54.07 52.30 46.01 45.59 46.01 49.73 49.73 44.92 36.05 29.91 30.41 32.54 34.79 33.23 27.25 29.44 24.41 28.72 28.46 28.92 27.40 31.74 31.88 33.66 31.41 27.22 22.62 29.96 32.56 34.42 33.22 30.01 31.27 21.78 22.45 11.57 11.78
57.27 57.33 57.44 57.27 57.31 57.39 57.69 58.50 58.30 56.23 53.44 50.64 45.59 38.94 46.03 49.81 47.58 40.30 29.72 31.12 32.17 36.72 37.60 33.47 29.25 27.17 27.61 27.29 28.62 26.34 26.00 29.50 32.55 33.13 32.05 29.32 26.10 25.13 30.68 29.25 27.88 28.70 26.57 25.27 24.13 19.94 10.16
56.74 57.10 57.22 56.90 56.31 55.95 56.46 56.87 58.05 55.13 51.39 48.02 43.62 35.73 46.65 48.10 34.63 35.19 32.51 32.05 37.33 35.68 37.26 36.23 33.24 30.96 29.24 29.57 27.62 25.58 26.74 28.74 33.52 33.95 30.64 30.70 26.86 22.69 25.74 30.40 31.47 29.40 28.26 26.34 19.54 18.12 18.16
56.04 56.64 56.95 56.60 56.04 55.62 55.65 55.88 56.68 53.11 50.87 44.83 39.50 38.70 46.69 45.57 30.11 30.80 33.00 32.93 35.15 33.55 34.04 34.47 33.53 34.09 33.39 30.14 27.58 27.96 28.62 34.54 35.36 33.45 30.37 31.76 25.92 18.07 22.24 25.77 27.89 26.53 27.87 27.33 25.88 24.39 20.30
55.34 55.92 56.35 56.26 55.93 55.57 55.49 55.54 54.39 52.53 50.04 44.43 36.67 31.24 35.96 41.49 38.03 32.53 31.82 32.35 32.46 36.64 34.73 35.84 34.52 34.89 32.29 31.01 32.31 27.80 28.48 34.58 35.32 34.31 39.78 35.66 26.52 23.83 17.86 22.29 26.29 25.38 26.88 27.43 25.83 19.79 21.18
55.01 55.53 55.72 55.91 56.04 55.85 55.51 55.07 53.45 52.19 49.77 43.53 37.58 33.63 37.49 30.44 33.63 34.82 33.78 33.13 31.92 31.20 35.40 35.67 32.56 33.29 31.92 28.43 28.64 28.48 30.43 32.07 34.47 35.39 32.91 31.10 25.02 24.26 25.96 27.02 28.09 27.66 28.01 27.54 25.77 25.34 22.20
54.36 55.20 55.37 55.66 55.87 55.45 55.19 53.80 52.31 51.32 49.51 41.50 34.51 34.92 36.48 35.31 35.96 34.73 33.71 31.89 31.22 33.69 33.15 31.90 30.59 32.67 31.88 28.77 29.59 27.58 31.10 31.03 32.53 31.81 32.20 33.40 27.29 28.62 25.82 27.20 26.88 25.26 27.02 26.94 27.33 27.44 25.49
54.23 54.87 55.15 55.44 55.25 55.08 54.36 52.73 51.57 50.82 46.94 39.84 41.12 41.09 37.82 34.76 34.19 32.65 31.54 31.47 32.66 34.38 33.90 33.87 33.79 31.80 30.67 32.41 33.81 33.81 33.49 32.73 32.16 31.40 29.07 29.63 28.03 24.80 19.60 24.06 24.00 19.48 23.95 26.60 27.49 27.43 26.90
54.21 54.53 54.89 54.86 54.50 54.11 53.02 52.07 51.51 49.67 45.57 42.53 41.26 39.97 33.57 29.22 31.89 31.43 33.80 34.01 32.83 33.28 31.93 33.57 33.96 32.02 32.84 32.72 32.05 30.24 28.78 28.54 28.86 29.69 32.05 28.23 26.77 25.76 19.90 21.76 13.54 22.82 27.06 28.50 27.19 27.09 25.56
54.30 54.57 54.36 54.05 53.52 52.45 51.34 50.89 50.36 48.67 46.25 41.93 40.74 39.07 33.14 25.51 31.93 31.49 32.84 32.53 32.88 33.95 32.43 33.07 33.71 32.07 32.42 29.80 26.23 23.86 23.35 23.87 24.79 26.29 25.99 30.64 28.45 22.96 18.62 17.80 20.68 25.14 24.95 23.95 22.85 21.14 23.83
54.24 54.06 53.63 52.03 50.93 50.01 49.41 49.09 49.00 49.17 46.94 41.36 39.30 38.87 36.98 29.00 26.97 31.84 29.41 31.32 28.81 28.92 29.63 28.13 30.13 31.19 30.69 27.45 25.02 18.74 17.00 20.27 19.39 21.66 25.61 26.54 29.40 25.68 20.70 16.31 12.43 20.14 24.46 25.78 25.02 17.30 23.65
53.58 52.83 51.06 49.72 48.81 48.34 48.28 48.30 48.26 48.23 47.04 41.39 38.69 38.41 34.59 29.29 27.22 29.40 26.98 27.31 29.79 27.18 25.74 26.25 26.80 27.09 28.88 24.58 21.19 19.11 18.19 22.02 16.71 17.30 19.66 21.92 23.14 20.59 21.30 19.03 19.40 22.45 23.21 25.40 17.00 16.61 22.96
50.29 49.29 48.27 47.16 46.49 46.03 45.74 45.53 45.70 46.07 46.48 41.33 37.31 39.10 32.10 28.02 28.07 28.98 28.78 25.69 26.45 26.91 22.35 24.74 25.35 25.04 24.47 21.60 21.30 20.79 19.72 18.61 16.67 18.03 19.11 19.26 18.41 18.88 21.14 18.97 15.02 21.50 21.03 17.41 19.68 20.77 21.48
47.71 47.04 46.02 45.49 45.36 45.53 45.72 45.53 45.44 45.27 45.54 40.82 34.79 38.45 37.27 30.54 29.05 33.26 33.10 32.84 31.04 30.08 25.27 23.88 24.40 23.46 25.87 21.58 19.85 19.49 17.74 14.53 13.95 11.95 17.21 14.60 19.32 17.49 19.36 18.53 20.75 20.87 20.75 23.41 22.82 21.93 21.40
MSLP
1022.75 1022.89 1022.96 1023.00 1022.95 1022.81 1022.67 1022.46 1022.35 1022.18 1021.96 1021.69 1021.39 1020.98 1020.49 1020.13 1019.83 1019.43 1018.93 1018.52 1018.07 1017.65 1017.24 1016.84 1016.43 1016.03 1015.92 1015.71 1015.69 1015.11 1014.87 1014.59 1014.28 1014.13 1014.26 1014.10 1014.16 1014.38 1014.30 1014.15 1014.02 1014.08 1013.99 1013.89 1013.99 1013.84 1013.81
1022.93 1022.92 1022.90 1022.88 1022.83 1022.83 1022.70 1022.48 1022.31 1022.13 1021.93 1021.64 1021.22 1020.83 1020.49 1020.13 1019.64 1019.17 1018.65 1018.15 1017.68 1017.27 1016.91 1016.62 1016.46 1016.28 1016.02 1015.84 1015.37 1015.21 1015.08 1014.72 1014.67 1014.70 1014.57 1014.36 1014.44 1014.60 1014.56 1014.44 1014.42 1014.34 1014.24 1014.17 1014.03 1014.11 1013.90
1022.78 1022.83 1022.87 1022.94 1022.91 1022.78 1022.63 1022.53 1022.39 1022.13 1021.86 1021.58 1021.26 1020.89 1020.53 1020.10 1019.56 1019.06 1018.42 1017.87 1017.31 1016.89 1016.58 1016.40 1016.45 1016.53 1016.21 1015.82 1015.41 1015.42 1015.18 1014.97 1014.90 1014.84 1014.94 1014.72 1014.65 1014.68 1014.79 1014.74 1014.74 1014.62 1014.67 1014.49 1014.22 1014.18 1014.27
1022.40 1022.44 1022.49 1022.60 1022.73 1022.73 1022.67 1022.55 1022.41 1022.21 1021.88 1021.65 1021.38 1020.96 1020.52 1020.09 1019.65 1019.03 1018.23 1017.59 1016.88 1016.57 1016.48 1016.43 1016.43 1016.66 1016.08 1015.57 1015.49 1015.53 1015.42 1015.22 1014.96 1014.82 1014.89 1014.79 1014.68 1014.68 1014.98 1015.14 1015.27 1015.34 1015.25 1015.03 1014.40 1014.19 1014.53
1022.04 1022.14 1022.13 1022.20 1022.38 1022.46 1022.37 1022.35 1022.26 1022.17 1022.01 1021.72 1021.38 1021.01 1020.67 1020.21 1019.69 1018.89 1018.04 1017.32 1016.76 1016.18 1016.31 1016.39 1016.59 1016.58 1016.13 1015.42 1015.71 1015.75 1015.90 1015.87 1015.41 1014.98 1014.77 1014.86 1014.95 1015.39 1015.51 1015.99 1016.47 1016.46 1016.13 1015.46 1014.71 1014.70 1014.48
1021.58 1021.66 1021.81 1021.86 1021.91 1021.97 1022.01 1021.98 1022.02 1021.99 1021.93 1021.83 1021.54 1021.16 1020.81 1020.43 1019.79 1019.02 1017.80 1017.06 1016.75 1016.27 1016.19 1016.40 1016.62 1017.05 1016.33 1016.52 1016.37 1016.06 1015.64 1015.76 1015.71 1015.39 1015.20 1015.30 1016.07 1016.38 1016.69 1016.82 1017.12 1016.69 1016.29 1015.57 1015.20 1015.08 1015.05
1021.13 1021.21 1021.33 1021.44 1021.59 1021.66 1021.70 1021.69 1021.79 1021.86 1021.73 1021.68 1021.52 1021.18 1020.90 1020.32 1019.70 1019.03 1018.21 1017.35 1017.65 1017.53 1017.39 1017.70 1017.49 1017.35 1016.99 1016.61 1016.38 1016.17 1015.90 1015.83 1015.83 1015.76 1016.00 1016.13 1016.90 1016.97 1016.72 1016.61 1016.46 1016.30 1016.26 1015.77 1015.19 1015.22 1015.53
1020.65 1020.81 1020.81 1020.89 1021.03 1021.12 1021.41 1021.52 1021.60 1021.64 1021.62 1021.45 1021.46 1021.24 1020.90 1020.51 1019.90 1019.28 1019.02 1019.78 1020.72 1020.77 1019.44 1017.99 1017.95 1017.62 1016.96 1016.74 1016.80 1016.54 1016.18 1016.25 1016.40 1016.55 1016.53 1016.95 1016.97 1016.62 1016.45 1016.41 1016.35 1016.32 1016.29 1016.16 1015.74 1015.59 1015.89
1020.09 1020.13 1020.16 1020.37 1020.55 1020.50 1020.78 1021.00 1021.20 1021.24 1021.33 1021.42 1021.33 1021.24 1020.96 1020.55 1019.96 1020.00 1020.36 1020.68 1020.72 1020.67 1020.45 1018.36 1017.77 1017.39 1017.13 1016.92 1016.95 1016.98 1017.04 1016.87 1016.95 1017.03 1017.01 1017.00 1016.80 1016.41 1016.30 1016.35 1016.53 1016.46 1016.48 1016.53 1016.74 1016.63 1016.71
1019.46 1019.58 1019.68 1019.77 1019.82 1019.98 1020.17 1020.46 1020.75 1020.87 1021.03 1021.19 1021.23 1021.15 1020.98 1020.54 1020.54 1020.85 1020.89 1020.83 1020.65 1020.71 1020.43 1018.47 1017.62 1017.21 1017.13 1016.92 1016.86 1016.72 1017.05 1017.37 1017.11 1017.60 1017.56 1017.37 1016.88 1016.58 1016.41 1016.46 1016.63 1016.76 1016.75 1017.02 1017.56 1018.18 1018.48
1018.74 1018.87 1018.95 1019.15 1019.28 1019.37 1019.52 1019.83 1020.07 1020.24 1020.59 1020.81 1020.99 1020.98 1020.97 1020.89 1021.32 1021.24 1021.21 1020.83 1020.72 1020.83 1020.51 1018.35 1017.28 1016.88 1016.98 1017.29 1017.33 1016.87 1016.82 1016.93 1017.34 1017.62 1018.04 1017.70 1017.26 1016.77 1016.73 1016.72 1016.72 1017.22 1017.41 1018.14 1018.99 1019.84 1020.11
1017.65 1017.95 1018.17 1018.41 1018.55 1018.79 1018.96 1019.15 1019.42 1019.80 1020.10 1020.35 1020.62 1020.68 1020.87 1021.09 1021.41 1020.94 1020.98 1020.86 1020.84 1020.87 1019.43 1017.78 1017.17 1016.97 1017.09 1017.20 1017.11 1017.03 1016.99 1017.19 1017.56 1017.77 1017.67 1017.62 1017.17 1016.89 1016.70 1016.88 1017.05 1017.46 1018.11 1019.16 1020.39 1021.18 1021.35
1016.65 1016.82 1017.10 1017.41 1017.64 1017.90 1018.11 1018.38 1018.68 1019.09 1019.51 1020.05 1020.31 1020.50 1020.75 1020.80 1020.89 1020.81 1020.90 1020.94 1021.31 1020.22 1018.59 1017.70 1017.27 1017.06 1017.15 1017.34 1017.51 1017.72 1017.73 1017.93 1018.28 1018.35 1018.25 1017.81 1017.25 1016.65 1016.60 1016.96 1017.32 1017.83 1018.98 1020.77 1021.91 1022.56 1021.57
1016.33 1015.98 1015.99 1016.18 1016.45 1016.89 1017.18 1017.54 1017.85 1018.31 1018.83 1019.35 1019.90 1020.13 1020.30 1020.48 1020.56 1020.67 1020.95 1021.14 1020.69 1018.68 1018.21 1017.55 1017.45 1017.23 1017.42 1016.95 1017.52 1017.81 1018.25 1018.41 1018.59 1018.84 1019.11 1018.94 1017.79 1016.97 1016.77 1016.92 1017.27 1018.09 1019.02 1020.64 1021.83 1022.78 1021.76
1015.87 1015.97 1015.65 1015.62 1015.73 1015.72 1015.89 1016.35 1016.81 1017.31 1017.91 1018.90 1019.57 1020.12 1020.32 1019.90 1020.51 1020.78 1021.12 1021.07 1019.16 1018.12 1017.38 1017.71 1017.85 1017.73 1017.40 1017.35 1017.09 1017.84 1018.11 1018.21 1018.16 1018.59 1019.05 1019.02 1018.13 1017.27 1017.07 1017.10 1017.27 1018.26 1019.06 1019.56 1021.13 1022.34 1022.21
1015.54 1015.43 1015.40 1015.37 1015.06 1015.25 1015.14 1015.40 1015.86 1016.55 1017.38 1018.28 1019.43 1020.05 1019.93 1019.74 1020.15 1020.92 1021.55 1019.86 1018.61 1017.50 1017.17 1017.27 1017.62 1017.67 1017.72 1017.65 1017.88 1017.72 1017.76 1017.36 1017.59 1018.05 1018.22 1018.75 1018.74 1018.13 1017.91 1017.68 1017.76 1017.81 1018.59 1019.94 1020.90 1022.25 1022.07
1014.91 1014.88 1014.97 1014.91 1014.99 1014.76 1015.04 1015.25 1015.57 1016.17 1017.37 1018.67 1019.38 1019.87 1019.60 1019.81 1020.28 1020.99 1020.74 1019.41 1017.95 1017.29 1016.98 1017.33 1017.34 1017.50 1017.88 1017.97 1018.25 1018.29 1017.73 1017.36 1017.24 1017.78 1018.12 1018.61 1019.24 1018.99 1018.64 1018.36 1018.07 1018.52 1018.62 1019.68 1020.53 1021.29 1021.83
1014.05 1014.19 1014.39 1014.35 1014.44 1014.41 1014.47 1014.65 1014.64 1015.77 1017.27 1018.62 1019.07 1019.78 1019.45 1019.84 1020.74 1020.40 1019.91 1018.96 1017.57 1017.05 1017.00 1017.15 1017.25 1017.47 1017.70 1017.73 1018.14 1018.26 1017.93 1017.22 1017.26 1017.45 1018.15 1018.46 1019.18 1019.58 1018.64 1018.38 1018.17 1018.04 1018.37 1018.92 1020.16 1021.14 1021.33
1013.63 1013.04 1013.49 1013.67 1013.75 1013.87 1013.97 1014.13 1013.93 1014.93 1016.11 1017.82 1018.82 1019.40 1019.28 1019.69 1019.97 1019.77 1019.10 1018.33 1017.73 1017.39 1017.20 1017.26 1017.34 1017.42 1017.67 1017.64 1018.33 1017.89 1017.56 1017.56 1017.57 1017.69 1017.89 1018.40 1019.08 1019.72 1019.16 1018.88 1018.57 1018.53 1018.38 1018.61 1019.15 1019.99 1020.37
1012.76 1012.56 1012.45 1012.75 1012.93 1013.16 1013.45 1013.54 1013.78 1014.56 1015.46 1016.85 1018.69 1019.46 1019.71 1019.22 1019.45 1019.49 1019.07 1018.40 1017.88 1017.48 1017.40 1017.51 1017.76 1017.95 1018.01 1017.99 1018.04 1018.29 1018.07 1017.97 1017.99 1018.11 1018.23 1018.46 1019.18 1019.66 1019.58 1019.11 1018.72 1018.57 1018.53 1018.79 1018.94 1019.65 1019.27
1011.93 1011.80 1011.60 1011.60 1012.09 1012.20 1012.44 1012.85 1013.59 1014.09 1014.85 1016.24 1017.82 1018.22 1018.13 1018.61 1018.71 1018.76 1019.04 1018.64 1017.96 1018.01 1017.71 1017.82 1018.03 1018.16 1018.31 1018.47 1018.44 1018.54 1018.55 1018.63 1018.58 1018.71 1018.92 1018.96 1019.38 1019.80 1019.77 1019.67 1019.26 1018.85 1018.65 1018.83 1019.00 1018.67 1018.52
1011.14 1010.95 1010.81 1010.92 1010.88 1011.07 1011.41 1012.21 1013.01 1013.89 1014.69 1016.13 1016.98 1017.50 1017.97 1017.91 1018.25 1018.46 1018.37 1018.45 1018.37 1018.33 1018.09 1017.68 1018.10 1018.39 1018.65 1018.69 1018.39 1018.64 1018.79 1019.25 1019.12 1019.31 1019.36 1019.68 1019.75 1019.87 1020.10 1019.77 1019.54 1019.01 1018.46 1018.48 1018.36 1018.10 1017.68
1010.09 1009.92 1009.76 1009.89 1010.07 1010.17 1010.31 1011.65 1012.69 1013.71 1014.20 1015.63 1016.45 1016.61 1016.85 1017.67 1017.86 1018.31 1017.89 1017.84 1018.36 1018.24 1018.38 1018.23 1017.54 1018.41 1018.96 1018.85 1018.66 1019.01 1019.17 1019.53 1019.81 1019.96 1020.10 1019.97 1020.31 1020.44 1020.28 1020.07 1019.47 1018.50 1017.36 1017.31 1017.55 1017.57 1017.38
1009.04 1008.97 1008.99 1009.00 1009.30 1009.50 1010.10 1010.98 1012.63 1013.52 1013.95 1014.78 1015.67 1016.31 1017.22 1017.42 1017.48 1017.62 1017.85 1017.99 1018.39 1018.42 1018.75 1018.80 1018.46 1018.45 1019.18 1019.05 1019.17 1019.28 1019.57 1019.81 1020.10 1020.22 1019.99 1020.33 1020.68 1020.85 1020.81 1020.54 1019.56 1017.49 1016.82 1016.96 1017.65 1017.93 1017.85
1007.96 1008.08 1008.18 1008.53 1009.04 1009.54 1010.63 1011.39 1012.44 1013.87 1014.34 1015.01 1015.89 1016.41 1017.11 1017.48 1017.24 1017.70 1017.67 1018.08 1018.50 1018.62 1018.84 1019.10 1019.27 1019.16 1019.20 1019.26 1019.72 1019.99 1019.94 1020.31 1019.96 1020.08 1020.28 1020.34 1020.63 1020.76 1020.86 1020.67 1019.01 1018.11 1017.61 1017.52 1017.73 1019.02 1018.79
1006.68 1007.15 1007.59 1008.33 1009.17 1009.97 1011.27 1011.65 1012.82 1013.42 1014.48 1015.50 1016.52 1016.74 1017.14 1017.56 1017.88 1017.10 1017.70 1018.24 1018.52 1018.88 1019.20 1019.37 1019.62 1019.41 1019.57 1019.91 1020.12 1020.51 1020.57 1020.34 1020.41 1020.68 1020.65 1020.67 1020.75 1020.74 1020.88 1020.63 1020.01 1018.82 1018.22 1018.17 1018.37 1019.56 1019.50
1005.82 1006.52 1007.68 1008.44 1009.41 1010.35 1011.27 1012.24 1012.82 1013.76 1014.34 1015.52 1016.56 1017.17 1017.68 1017.82 1017.94 1017.58 1018.00 1018.26 1018.45 1018.91 1018.94 1019.73 1020.10 1019.91 1019.82 1020.54 1020.77 1020.85 1020.95 1020.82 1020.85 1020.85 1021.18 1021.30 1021.21 1020.55 1020.54 1020.53 1019.94 1019.61 1019.12 1018.73 1019.63 1021.11 1020.39
1006.18 1007.17 1008.14 1009.17 1009.95 1010.81 1011.80 1012.58 1013.27 1013.77 1014.46 1015.39 1016.70 1017.03 1017.33 1017.70 1018.24 1017.91 1018.15 1018.47 1018.64 1018.64 1019.01 1019.77 1020.20 1020.55 1020.83 1020.84 1021.26 1021.23 1021.50 1021.67 1021.61 1021.19 1021.16 1021.11 1021.11 1021.00 1021.08 1020.99 1020.75 1019.98 1019.75 1020.37 1021.07 1020.83 1020.88
1006.85 1007.85 1008.85 1009.77 1010.60 1011.43 1012.15 1012.71 1013.32 1013.82 1014.43 1015.32 1016.64 1016.90 1016.88 1017.57 1018.45 1018.39 1018.74 1018.76 1018.62 1018.41 1018.81 1019.72 1019.85 1020.18 1020.48 1021.12 1021.69 1021.99 1022.41 1022.76 1022.67 1022.32 1021.89 1022.02 1021.50 1021.36 1021.43 1020.91 1020.71 1020.71 1021.06 1021.01 1021.00 1021.21 1021.15
Wind_Speed
4 7 4 6 8 10 11 11 12 13 14 15 17 17 17 18 20 21 21 20 19 19 18 17 16 13 5 3 2 5 13 11 5 4 3 2 3 1 1 1 0 1 1 1 2 2 2
5 5 6 7 7 9 11 12 11 11 12 14 15 17 19 19 19 20 21 22 22 21 17 14 13 10 2 1 3 6 7 5 4 4 3 4 2 2 1 1 2 1 1 1 0 1 1
10 10 9 9 9 9 9 10 12 12 12 14 15 17 18 20 21 22 22 22 22 20 13 8 7 3 2 2 3 6 7 3 3 2 2 1 1 2 1 1 1 1 2 3 3 2 1
12 12 11 10 10 9 10 11 12 13 13 14 16 16 17 19 22 24 24 23 21 11 5 3 4 2 1 3 2 4 7 4 6 2 1 1 1 2 2 0 6 2 4 2 2 4 1
14 14 13 11 10 10 10 10 11 12 14 15 15 15 17 19 21 24 24 24 14 3 2 3 2 1 1 4 4 4 4 5 7 3 1 1 2 3 4 4 6 6 3 3 4 5 3
14 13 13 12 11 11 10 9 10 11 12 14 14 14 16 18 21 23 25 19 7 4 3 0 0 2 5 5 5 6 3 3 2 4 3 6 5 4 4 5 5 3 2 4 4 1 0
15 14 13 12 13 12 11 10 9 10 10 12 13 14 16 17 19 22 13 5 8 5 9 1 4 3 2 6 2 3 3 5 3 5 2 3 6 3 6 5 2 2 2 3 1 0 2
17 16 15 14 14 13 13 11 10 10 9 9 11 13 15 18 20 18 4 6 1 3 9 2 4 4 4 1 3 5 6 3 3 1 1 6 2 1 2 2 3 4 1 5 2 1 2
19 19 18 17 16 15 14 13 12 10 9 8 8 10 14 16 16 5 4 3 2 4 1 7 3 2 3 2 1 5 6 2 4 1 1 4 2 4 1 1 2 2 4 3 5 1 2
20 20 20 19 18 17 15 13 13 12 9 6 6 7 11 18 4 3 2 5 2 1 5 7 1 2 1 1 1 1 2 1 4 1 1 2 3 2 1 1 5 2 1 2 1 4 4
22 22 22 21 20 19 17 16 15 13 10 7 6 5 6 7 2 2 3 4 1 2 6 3 2 1 1 0 2 2 0 2 2 1 4 4 2 3 0 2 1 4 3 4 3 4 5
23 23 22 22 21 20 19 18 17 15 12 10 7 4 3 2 1 2 3 1 2 8 9 2 1 1 1 1 1 2 2 3 1 1 1 5 3 2 1 1 2 6 4 6 5 3 3
23 24 23 23 22 21 20 20 19 17 15 11 8 5 2 1 1 0 1 1 4 5 3 3 4 2 1 2 2 1 2 2 2 3 2 3 2 2 2 2 2 3 5 3 6 5 7
10 20 25 24 23 22 22 21 20 20 17 14 9 6 2 3 1 1 1 3 5 5 6 2 2 2 4 6 3 1 1 3 2 2 2 3 7 4 2 3 6 2 4 7 7 3 5
12 14 7 13 20 24 24 23 23 22 19 14 10 2 2 3 5 2 3 3 8 8 4 5 1 3 4 3 4 3 5 4 5 8 5 3 4 1 1 1 3 3 3 4 6 1 3
15 15 13 13 10 15 19 21 23 22 19 20 5 3 3 7 7 2 3 7 7 5 4 4 9 7 6 5 5 6 6 4 3 7 2 3 2 1 1 1 2 2 5 4 3 2 4
18 17 16 15 14 12 13 14 21 19 20 18 3 3 2 8 3 3 5 8 6 6 5 8 6 4 6 5 6 4 5 1 3 4 3 4 2 3 2 5 7 2 1 3 4 5 6
18 19 18 16 15 14 13 13 18 22 24 13 4 3 4 6 3 3 5 6 4 5 2 4 3 6 7 6 6 5 7 4 2 5 6 4 5 4 9 3 3 3 6 6 5 5 1
19 18 20 19 17 15 14 14 17 30 26 7 5 2 2 2 5 6 3 4 4 4 4 5 6 5 3 7 3 6 3 2 1 4 7 5 2 1 7 4 1 3 4 3 4 3 6
18 19 19 20 18 16 15 12 27 31 25 5 4 4 2 4 2 2 4 4 5 0 0 1 1 1 2 3 2 1 2 2 2 2 3 1 4 6 7 2 3 3 3 2 4 3 4
19 20 18 18 19 18 15 17 28 31 26 6 3 3 4 6 6 7 5 3 4 6 2 2 1 4 4 4 2 4 2 1 3 4 2 3 4 3 4 5 3 4 6 5 7 6 7
21 21 19 19 18 18 16 25 31 30 25 4 6 5 3 2 3 10 8 5 8 3 6 5 4 3 4 4 4 4 4 2 1 2 2 3 2 2 5 7 7 7 9 9 12 9 9
22 21 19 18 17 16 19 29 31 30 15 3 2 2 3 6 5 5 4 6 5 4 3 2 7 5 3 4 2 3 4 3 4 3 2 3 3 3 3 3 5 9 13 16 8 4 4
22 20 18 16 13 14 24 28 30 29 9 3 2 4 2 3 6 5 4 5 7 6 1 0 2 5 2 3 3 2 2 2 4 6 4 4 4 2 2 2 5 3 1 4 6 3 6
23 20 15 15 15 23 25 26 27 24 11 4 3 3 3 2 3 3 7 4 4 3 3 3 1 2 4 3 2 3 0 2 5 7 8 7 3 3 3 4 7 11 3 2 3 2 6
22 19 18 26 25 26 23 24 22 22 18 5 2 2 2 4 4 4 4 4 3 3 3 3 3 2 4 1 2 3 4 2 3 1 4 7 7 4 4 4 5 3 4 5 3 1 7
15 19 26 27 26 23 22 22 22 21 20 6 2 2 1 3 2 3 3 5 5 3 4 4 4 2 1 2 3 4 4 2 4 3 4 5 4 13 7 5 6 4 7 5 4 2 6
29 29 28 26 24 22 20 18 16 17 18 7 2 2 2 3 0 2 1 3 2 2 5 5 4 1 1 4 4 3 4 2 1 1 4 5 6 4 6 4 9 7 5 4 3 4 2
30 28 26 24 21 19 19 21 22 22 19 9 3 1 2 5 3 2 3 1 2 1 5 2 3 2 3 3 1 2 2 0 1 3 1 3 3 3 4 2 2 4 4 5 2 2 3
Wind_Direction
269 270 255 305 323 330 333 338 343 344 341 338 335 335 341 341 340 338 337 333 329 328 328 325 325 332 347 59 331 329 336 334 350 7 50 57 72 47 285 277 101 179 264 56 358 19 49
273 255 262 287 306 319 326 329 334 335 334 331 331 335 338 338 339 337 333 330 326 326 324 324 328 334 26 72 315 329 336 335 9 23 8 36 107 104 278 323 162 330 5 350 271 282 16
262 265 274 288 298 308 314 318 321 325 327 329 332 333 336 337 337 333 329 326 322 323 323 328 334 352 26 182 343 325 354 305 357 6 2 46 111 134 34 353 347 122 323 317 230 204 281
255 257 261 273 287 297 307 315 319 327 329 329 330 333 337 337 334 330 325 324 321 326 348 357 346 351 158 299 291 4 340 330 350 349 236 259 142 104 68 191 18 38 48 3 285 151 12
256 253 250 256 270 285 298 306 313 320 326 330 330 335 336 336 333 328 322 322 313 320 331 356 360 23 300 330 17 317 9 323 311 333 274 356 52 83 45 77 15 3 231 212 311 213 117
255 255 247 245 254 265 278 290 303 312 322 329 332 334 336 336 334 327 322 317 301 4 359 133 244 35 11 314 300 319 308 347 324 319 34 47 41 61 41 81 219 254 256 253 258 262 200
250 247 245 236 249 259 268 274 283 296 309 319 326 333 335 338 336 330 337 6 11 351 35 254 266 243 260 291 273 331 357 345 340 42 83 16 70 209 226 190 126 116 216 274 209 189 220
242 245 239 233 236 246 259 265 272 281 294 314 324 331 334 335 337 333 17 63 77 208 317 279 270 276 246 117 348 330 4 68 31 75 63 24 219 256 263 194 204 219 262 281 296 136 169
240 239 236 235 234 235 241 245 256 260 277 298 318 325 331 333 334 26 44 66 289 146 213 301 259 266 278 60 31 309 16 352 55 48 45 158 181 320 210 207 170 215 186 222 222 35 35
240 241 240 236 231 230 231 233 239 247 259 270 297 318 334 330 49 325 29 327 3 138 51 285 323 329 23 157 69 120 18 60 31 32 343 245 310 352 343 273 128 240 318 259 162 84 235
242 239 238 237 234 230 224 225 228 232 233 230 254 300 340 31 256 37 299 322 305 60 347 260 234 234 354 23 311 27 97 23 123 189 82 266 12 27 259 251 251 227 52 79 64 85 34
238 240 239 238 234 231 225 222 222 226 223 215 227 250 334 124 13 242 311 317 44 42 260 300 132 221 316 275 265 327 69 63 133 118 146 240 269 186 220 46 313 155 79 52 65 86 352
248 240 238 237 233 229 224 222 218 217 212 208 215 215 185 157 221 113 333 1 10 156 9 248 234 170 215 250 295 323 9 343 202 81 285 314 233 271 179 101 38 81 69 351 1 12 226
313 255 240 234 233 232 226 223 220 215 207 194 188 171 215 217 147 101 24 51 204 213 231 313 190 143 218 162 227 163 357 302 266 83 95 136 324 170 166 197 188 167 154 155 200 195 265
275 272 297 263 246 234 224 220 220 214 198 171 139 124 239 206 160 101 97 203 210 208 174 182 24 204 232 220 165 156 205 211 212 184 177 153 286 352 193 199 150 183 188 174 107 109 51
265 272 270 276 290 272 237 229 221 212 181 153 138 160 215 135 124 99 128 219 238 215 159 152 195 176 209 204 171 165 195 199 199 191 170 233 322 314 307 86 19 173 162 71 12 181 260
266 264 262 264 268 258 256 255 234 205 161 145 126 143 160 134 108 133 216 223 250 236 175 176 211 217 217 189 193 208 214 231 177 153 150 139 109 295 28 215 188 142 206 68 114 141 170
266 260 259 259 262 262 266 280 244 163 145 146 142 197 154 156 131 201 205 209 229 205 172 229 175 201 194 186 201 225 220 208 154 152 166 186 148 234 222 286 209 185 198 156 133 227 179
267 261 253 251 257 259 264 285 192 155 153 135 153 82 160 125 200 209 237 249 241 178 204 190 216 205 186 182 224 200 188 71 46 162 167 182 181 14 333 3 326 233 217 173 112 97 187
265 265 254 249 251 251 254 258 167 163 156 96 129 146 293 189 208 222 202 230 224 359 169 145 139 99 138 195 210 248 205 73 38 65 123 92 169 188 195 205 163 223 194 183 154 144 210
268 264 259 255 251 252 247 196 172 164 157 106 133 203 191 186 226 193 182 231 193 193 191 193 183 228 185 199 197 221 192 130 44 356 67 129 212 185 272 264 271 248 241 236 212 213 213
264 258 255 256 247 249 239 180 170 165 156 83 146 161 184 151 161 184 177 202 197 192 168 191 179 234 213 209 201 181 145 222 133 12 115 31 225 180 261 271 240 251 246 245 246 239 249
264 255 257 255 248 239 192 174 169 160 140 128 177 102 132 165 162 176 198 177 183 147 201 242 182 143 195 203 113 122 107 95 133 163 187 148 159 142 257 326 304 276 224 224 238 211 223
255 253 252 243 218 192 170 166 166 164 129 115 109 99 129 185 174 181 177 174 194 185 213 297 91 133 152 112 110 110 89 196 193 226 173 159 147 168 257 336 247 290 288 192 217 357 349
245 240 239 183 177 152 150 156 162 163 111 73 80 124 156 152 133 145 155 151 123 142 133 151 55 4 149 73 55 320 302 313 240 219 202 192 167 185 202 205 313 301 12 61 188 110 359
231 226 192 150 147 147 154 157 169 170 146 85 78 46 72 115 241 130 127 164 159 151 139 121 36 67 63 122 153 215 234 252 253 198 13 181 227 204 153 197 244 250 313 352 290 212 339
219 153 142 142 144 149 160 170 175 177 154 119 115 110 161 114 259 102 156 188 153 132 108 131 164 112 54 139 195 198 235 207 224 209 161 152 190 226 212 219 280 327 309 307 172 268 339
140 139 137 138 139 144 151 154 161 161 165 130 122 159 189 103 67 33 77 120 88 154 144 169 101 272 83 167 196 198 211 226 274 194 175 176 175 199 210 234 249 323 34 49 246 290 20
135 135 131 131 134 145 161 173 183 185 167 152 113 200 230 84 109 50 69 25 357 135 127 4 135 145 157 113 52 100 175 101 148 266 319 239 191 184 200 213 146 79 159 241 217 248 346